Location: Standeford and Andreas Observatories
(44.1397°N, 93.9969°W)
Time: 14:11:58
(UTC-05:00)

Cosmos 1500 Rocket - Visible Passes

Search period start: 26 March 2015 00:00
Search period end: 05 April 2015 00:00
Orbit: 604 x 633 km, 82.5° (Epoch: 25 March)

Date Brightness Start Highest point End Pass type
(mag) Time Alt. Az. Time Alt. Az. Time Alt. Az.
26 Mar 5.4 19:59:09 10° NNW 20:03:14 37° W 20:07:18 10° SSW visible
27 Mar 6.6 20:16:55 10° NW 20:20:17 21° W 20:23:33 10° SW visible
28 Mar 7.2 20:35:33 10° WNW 20:37:16 12° W 20:38:45 10° WSW visible
31 Mar 7.2 06:27:46 10° ESE 06:29:22 12° E 06:31:12 10° ENE visible
04 Apr 7.0 05:58:31 10° ESE 06:00:18 13° E 06:02:19 10° ENE visible
